Wind_Speed
21 22 24 25 26 25 24 25 25 25 24 25 27 30 32 32 32 30 28 29 32 36 41 45 47 48 45 36 22 12 14 19 20 18 15 15 16 15 14 14 14 16 17 18 19 18 19 18 15 12 11 13 12 12 13 12 12 11 8 7 6 7 8 10 12 13 13 11 9 9 9 9 9 9 9 9 8 7 6 5 5 5 7 8 8
19 20 23 25 26 26 25 25 26 26 26 26 26 27 28 30 31 32 32 31 31 32 35 38 42 47 51 52 47 33 17 11 18 22 20 18 19 19 18 18 18 18 19 19 20 21 20 18 16 14 15 17 15 13 13 14 16 15 13 10 7 8 9 10 12 14 14 14 12 10 10 10 10 10 10 10 9 8 7 5 4 4 5 6 6
16 17 22 25 26 27 25 24 26 27 27 27 27 27 26 26 27 30 32 33 32 32 32 33 36 39 43 48 53 52 41 24 10 16 23 24 22 21 22 22 21 21 21 21 20 21 20 18 18 17 18 18 15 13 12 14 17 17 16 15 10 9 9 11 13 14 15 16 15 13 12 11 11 11 11 11 10 9 8 6 4 3 4 4 4
14 16 20 22 24 26 25 24 25 26 27 28 28 27 27 25 25 26 28 30 31 31 31 32 33 35 37 40 45 52 55 46 30 13 13 23 27 26 25 24 23 23 23 23 22 20 20 22 22 20 20 19 17 15 14 17 18 16 17 18 15 12 10 11 13 15 16 17 18 16 15 13 12 12 12 12 12 10 9 8 5 3 3 4 4
13 15 18 20 22 23 24 24 26 27 28 29 29 29 28 28 27 27 28 29 31 31 31 32 33 34 36 37 39 43 50 55 48 34 18 11 22 28 29 28 26 25 25 25 24 21 23 28 27 24 23 21 20 20 19 20 19 16 17 20 20 17 15 14 14 15 17 18 19 19 18 16 15 14 14 14 14 12 11 10 8 5 4 4 4
14 14 16 18 20 21 22 24 26 27 29 31 31 31 31 30 30 30 31 31 33 33 33 33 33 34 35 36 37 38 41 49 55 50 37 22 11 19 28 31 30 28 27 27 27 25 26 29 29 27 26 24 23 23 21 20 19 18 20 22 22 20 18 18 16 16 18 19 21 21 21 19 17 16 16 16 16 15 13 12 10 8 5 4 4
14 15 16 18 18 19 21 23 25 27 30 32 33 34 33 32 31 32 33 34 35 35 35 35 34 34 35 35 36 36 38 41 48 54 51 42 28 14 17 26 31 33 31 29 29 29 29 30 29 28 28 27 27 26 23 23 23 23 22 23 23 20 18 19 20 19 19 20 22 22 22 21 19 17 17 17 18 17 15 14 13 10 8 6 5
14 17 18 18 18 17 19 21 23 26 29 32 35 37 36 34 33 33 35 36 37 37 37 36 35 34 35 35 35 35 37 39 41 48 53 52 46 34 19 16 24 30 34 34 32 30 30 32 32 31 30 30 30 29 27 26 26 26 25 25 23 21 20 22 23 21 19 21 23 24 23 23 21 19 18 18 19 19 17 16 15 13 10 8 6
16 18 19 19 18 17 18 20 22 24 27 31 36 39 39 36 35 36 38 39 39 39 39 38 37 35 34 35 35 35 36 38 39 43 48 52 53 50 40 24 17 24 30 33 35 34 32 32 34 36 35 33 33 32 30 29 29 28 28 28 25 24 24 23 23 23 22 22 23 25 24 23 23 21 20 19 19 20 19 17 17 16 13 11 8
18 18 19 19 19 18 19 21 23 23 25 29 34 38 40 38 38 39 41 42 42 42 41 39 38 36 34 34 35 35 35 37 39 41 45 48 51 54 54 46 30 19 24 30 34 36 36 34 34 37 38 37 37 36 33 32 32 30 30 31 29 28 26 25 26 26 25 23 22 25 25 25 24 23 22 21 20 21 21 19 19 18 16 13 11
20 20 20 20 20 20 21 22 23 24 25 28 31 36 38 38 40 42 43 44 45 45 43 41 39 37 34 33 34 34 34 36 39 41 44 46 48 51 54 56 51 36 21 25 32 35 38 38 36 36 38 39 39 39 37 36 35 34 33 33 33 32 30 29 29 29 27 24 22 24 27 26 26 25 24 23 22 22 22 21 20 20 19 16 13
21 22 23 22 21 22 22 23 23 24 25 27 29 33 35 37 41 44 45 46 46 46 45 42 39 38 35 33 34 34 35 36 39 43 44 45 47 49 52 55 57 54 41 23 25 34 37 39 39 38 38 39 40 41 40 39 38 36 35 36 36 36 35 34 32 30 28 25 23 25 28 29 28 27 27 26 25 24 24 24 22 21 21 19 16
22 23 25 25 26 26 25 24 23 24 25 27 29 31 34 37 42 44 46 46 46 45 45 43 40 39 36 33 33 35 36 37 40 44 44 45 48 49 51 54 55 56 55 44 25 24 35 39 41 41 40 39 40 41 42 41 41 39 38 38 38 38 39 38 35 32 29 28 27 27 28 29 30 29 29 28 27 26 26 26 25 23 22 21 19
24 25 27 29 30 30 29 27 25 24 23 26 29 31 33 36 40 43 45 45 43 44 45 44 40 40 37 33 33 36 37 38 42 45 44 46 49 49 51 54 55 55 56 56 46 27 22 34 40 42 42 41 40 41 42 43 44 43 42 41 39 39 41 41 38 34 32 32 31 28 27 28 30 31 30 29 29 29 28 28 27 26 24 23 22
28 29 30 32 33 33 32 30 27 24 23 25 28 30 32 34 38 42 45 44 42 44 46 44 40 40 37 34 34 36 38 39 42 44 45 48 50 51 52 54 56 57 55 55 55 46 28 20 32 40 43 43 42 42 42 43 45 46 45 43 42 42 44 43 41 37 35 34 33 29 28 29 30 31 31 31 31 31 30 30 29 28 27 26 24
30 31 32 33 34 34 33 30 27 23 22 25 28 29 30 33 37 42 44 42 42 45 45 43 40 40 37 33 34 36 37 39 41 43 45 48 51 52 53 54 55 57 57 55 55 53 44 28 19 30 39 43 44 43 43 44 45 47 48 47 45 46 46 45 43 39 37 37 35 32 30 30 32 32 32 33 33 33 33 32 31 30 29 28 27
31 31 32 33 34 33 32 30 26 21 21 26 28 28 29 32 37 43 44 43 44 45 43 40 39 39 36 33 32 34 36 39 41 44 45 48 51 53 53 53 55 57 58 55 53 53 51 42 28 19 27 38 43 44 44 44 45 47 49 50 49 49 49 48 45 43 40 40 39 37 33 33 34 35 34 35 36 36 35 34 34 33 31 31 30
30 31 32 32 32 32 30 28 25 20 21 25 27 27 29 32 38 44 46 45 45 44 41 37 37 37 35 32 32 34 36 39 42 44 45 48 52 54 53 53 55 57 59 57 52 51 51 48 40 28 19 26 37 43 44 44 45 47 48 51 52 52 51 51 49 47 45 44 44 42 38 35 36 37 37 37 37 37 38 37 36 36 34 33 32
30 31 31 32 32 31 30 27 24 20 20 24 26 26 28 33 40 46 48 47 45 43 38 34 34 34 34 32 32 33 36 38 41 43 45 49 52 53 53 53 55 58 60 59 53 49 48 49 47 40 27 19 25 36 43 45 45 46 48 50 53 55 54 53 52 51 49 48 47 46 44 41 38 38 39 40 38 37 38 40 40 38 37 36 35
30 30 31 32 33 32 30 28 26 22 22 24 25 27 31 37 43 46 48 48 44 41 37 32 31 31 31 31 31 33 35 37 40 42 45 48 51 51 52 53 55 58 60 60 55 50 48 48 48 47 39 28 20 25 35 44 46 47 48 50 51 54 55 55 55 55 53 51 50 49 49 47 44 43 42 43 42 39 39 41 42 41 39 38 37
31 31 31 32 33 32 31 30 28 26 25 26 29 33 38 42 45 45 46 47 43 40 36 30 28 29 29 30 31 33 35 36 39 41 44 47 48 49 50 52 55 58 59 61 58 53 51 50 48 48 47 40 29 22 25 36 45 48 49 50 52 53 54 55 56 58 57 55 54 53 52 52 50 49 47 45 45 44 43 42 43 43 42 41 40
34 34 34 34 33 31 31 31 29 28 29 31 35 39 43 45 46 45 45 47 44 40 36 30 27 28 29 30 32 34 35 37 39 42 44 46 47 48 49 51 54 57 58 59 60 57 55 53 50 49 49 46 40 30 23 25 36 47 51 52 53 54 55 55 56 58 60 59 58 57 56 55 55 54 52 49 47 47 46 45 44 44 44 44 42
37 38 37 36 34 32 31 30 28 28 29 34 38 42 44 45 46 45 46 47 44 39 35 31 29 29 30 31 34 35 37 39 42 44 46 46 46 47 49 51 53 55 56 56 57 58 57 56 55 54 52 48 45 39 32 26 27 36 48 54 55 56 56 57 58 58 60 62 62 61 60 59 58 57 56 54 52 50 50 49 47 46 46 46 44
40 41 40 39 37 34 32 30 28 28 31 37 42 45 46 46 46 45 45 46 44 39 35 33 33 33 33 34 36 38 40 43 45 47 48 48 47 47 49 52 53 54 54 54 54 56 57 57 57 57 56 53 48 44 40 34 30 29 37 49 56 59 59 59 60 60 60 62 64 65 64 63 62 61 60 59 57 54 53 52 51 49 48 49 48
41 41 41 40 38 36 34 33 32 33 36 41 44 47 48 49 48 46 45 45 44 39 35 35 37 36 36 37 39 41 43 45 47 49 50 49 48 48 51 53 54 54 54 54 53 54 55 56 58 58 59 59 53 47 45 40 34 32 31 38 49 59 63 62 62 63 63 63 64 66 68 68 67 65 64 63 62 59 57 56 54 52 50 51 51
40 38 39 39 39 37 36 35 36 38 41 43 46 50 52 52 50 45 43 43 42 38 34 36 39 40 40 40 41 43 44 45 48 50 51 50 49 50 52 54 55 55 56 57 56 55 55 57 59 60 60 62 58 51 49 47 38 33 33 34 39 50 61 66 66 65 65 65 65 65 67 70 70 68 67 66 66 64 61 59 57 55 52 52 53
38 38 39 40 40 39 39 39 39 41 41 43 50 55 56 56 51 45 42 42 39 36 35 38 42 43 43 43 43 44 44 47 50 51 52 51 50 51 54 55 56 57 58 59 59 58 57 58 60 62 63 64 61 55 52 52 46 34 31 33 37 42 51 63 69 70 68 68 68 66 66 69 71 70 68 68 69 68 65 63 60 58 54 53 54
38 39 40 39 39 41 42 42 42 41 43 47 55 59 58 57 52 47 44 42 39 38 40 43 44 45 45 45 44 44 47 49 51 52 51 50 51 54 55 54 56 57 59 61 61 60 60 60 61 64 67 67 63 59 54 55 53 38 30 32 35 40 45 54 64 72 73 71 70 70 68 70 72 71 69 69 70 70 68 66 64 61 58 55 55
36 37 37 36 38 41 44 46 45 45 49 54 58 59 59 57 54 50 48 45 42 43 45 46 46 45 45 45 44 46 50 51 51 52 51 50 52 55 55 54 55 57 59 61 63 63 63 63 64 66 70 70 66 62 58 58 57 42 31 32 33 38 43 49 57 67 75 76 75 74 73 72 73 74 72 70 71 71 69 68 67 65 62 59 56
33 34 35 36 38 41 45 47 48 51 55 57 58 58 58 57 55 53 50 47 46 47 49 49 47 45 46 45 46 50 52 52 52 52 51 51 54 55 53 53 56 58 59 61 63 64 64 65 68 70 72 72 69 66 63 62 60 47 33 33 34 36 41 48 54 61 71 78 80 78 77 76 75 76 76 73 73 73 72 71 70 68 66 63 59
35 35 36 38 39 41 43 45 48 52 56 56 56 57 57 56 55 53 50 48 48 50 52 51 48 47 48 49 51 53 54 52 52 52 51 53 54 54 53 53 56 58 59 60 61 65 67 67 71 74 74 74 72 70 69 67 63 54 41 35 36 37 40 46 53 59 65 75 83 84 82 81 79 79 79 78 76 75 75 74 72 71 70 66 63
39 38 39 41 42 43 44 46 49 52 54 54 55 56 56 56 54 51 49 49 50 52 52 52 52 52 53 54 54 55 53 53 53 53 52 54 55 54 53 55 57 58 59 60 61 64 69 72 74 75 76 76 74 74 74 71 67 62 54 45 39 39 41 45 52 59 64 70 81 88 87 85 84 83 83 83 80 78 78 77 75 74 72 70 66
40 40 41 42 43 45 46 48 51 53 54 53 53 54 55 54 52 50 49 50 51 52 54 55 55 55 55 55 54 53 53 54 54 53 53 56 56 55 55 57 59 58 58 61 64 66 70 74 76 76 77 77 77 79 78 74 71 70 66 59 51 44 43 46 51 58 65 67 75 86 91 90 88 87 86 86 85 83 81 79 78 76 75 73 69
42 43 42 41 42 45 46 48 51 53 53 52 52 54 56 54 51 49 48 50 52 55 58 59 57 56 54 53 53 53 53 55 54 53 55 58 57 56 57 59 59 57 59 63 67 69 70 72 75 76 78 79 81 84 83 79 78 77 73 70 64 53 47 47 50 56 64 66 69 79 90 94 92 90 89 88 88 87 85 82 80 78 77 75 72
46 46 45 45 46 48 49 50 51 52 52 52 56 59 59 56 53 51 51 54 56 59 62 61 58 54 52 51 53 54 54 55 55 55 57 58 58 59 60 60 59 59 62 65 68 71 72 72 74 76 80 82 85 88 87 85 85 83 79 77 72 63 55 51 50 54 61 66 65 71 84 94 96 94 93 92 91 90 89 86 84 82 79 77 75
52 50 50 51 51 51 50 50 51 50 50 55 61 63 59 53 52 52 54 56 57 60 63 60 55 51 51 53 55 55 56 57 58 59 59 59 60 62 62 62 61 61 64 66 68 71 72 73 75 78 82 85 88 90 89 89 90 88 85 83 78 68 61 56 51 51 57 64 64 65 74 88 97 98 96 95 93 92 92 90 87 85 82 79 77
56 53 51 51 50 49 47 47 47 47 51 59 63 61 55 51 51 53 55 58 62 65 66 61 54 52 52 54 55 56 58 60 62 61 61 62 63 63 63 63 62 62 65 67 69 71 73 74 76 79 84 88 90 91 92 93 94 93 91 89 82 71 65 60 53 49 53 61 63 62 68 80 92 99 99 97 96 94 93 92 90 87 85 83 81
57 54 51 49 48 48 46 45 46 49 56 62 63 60 58 56 57 59 63 66 69 70 70 64 58 56 56 56 58 59 61 63 64 63 63 64 64 63 63 64 64 64 66 68 70 73 75 77 78 81 86 91 91 92 95 97 98 98 96 93 84 72 65 62 56 49 49 57 61 61 65 73 83 95 100 99 98 96 94 94 92 89 87 86 84
58 57 53 50 49 48 46 45 48 54 59 62 62 62 62 63 65 67 68 69 70 72 72 68 62 60 60 61 63 64 65 66 66 64 64 63 62 61 63 65 67 67 68 69 71 74 77 79 81 84 88 92 93 94 98 101 102 101 99 94 83 72 65 62 57 50 47 52 57 58 62 68 75 86 97 100 100 98 95 94 93 91 89 87 87
59 59 55 51 48 48 48 48 51 56 60 62 63 64 65 68 70 69 67 68 70 73 73 69 65 64 65 66 67 67 67 66 65 65 64 63 62 62 63 66 68 68 69 71 73 75 78 81 83 85 88 92 95 98 101 103 104 103 100 92 79 70 65 60 55 51 47 48 53 55 58 64 69 78 90 98 100 100 96 94 94 93 91 89 88
57 58 56 54 53 53 54 56 59 62 64 65 66 67 68 71 72 70 69 71 73 74 73 72 70 69 69 68 66 66 66 64 64 64 64 65 64 65 66 68 69 69 71 74 75 78 81 83 84 85 88 93 97 101 103 105 105 103 97 87 75 68 64 58 53 51 47 45 50 53 56 61 65 71 82 92 98 100 98 95 94 94 93 91 88
55 57 58 59 62 63 64 65 67 68 68 67 68 69 71 73 74 75 75 75 76 75 75 74 73 72 69 65 62 63 64 65 63 62 64 66 67 66 68 70 70 70 73 76 78 81 82 82 84 88 91 96 100 104 106 106 104 100 92 81 72 67 62 55 50 49 46 44 47 52 55 59 62 67 75 85 93 98 98 96 94 94 95 93 90
56 58 60 63 66 68 70 70 72 72 72 71 72 73 75 76 77 77 77 76 74 73 73 72 71 69 65 61 60 61 62 65 64 63 65 68 68 66 67 69 69 71 75 79 81 81 81 83 88 93 96 100 104 106 107 105 101 95 86 76 69 66 61 53 48 46 44 42 45 50 55 58 61 63 69 78 88 95 98 97 95 95 95 94 92
59 60 62 63 66 68 70 72 74 75 75 76 76 77 78 78 78 78 77 75 73 72 72 71 71 69 65 62 61 60 60 62 64 64 66 66 65 66 67 69 70 73 77 80 81 81 84 88 93 97 101 103 106 106 105 102 96 89 80 71 65 63 59 52 46 43 41 40 42 48 55 59 60 60 64 72 82 90 95 97 97 96 95 94 93
61 62 62 64 66 68 69 71 73 75 76 76 76 77 77 78 78 78 77 76 74 74 74 73 70 67 64 61 59 58 60 61 63 66 67 64 63 65 67 69 72 76 79 81 82 84 89 93 96 100 104 105 105 104 102 97 90 82 74 66 62 61 58 51 45 41 39 39 41 46 53 58 58 58 61 67 77 85 90 96 98 97 95 94 94
64 64 65 66 67 68 69 71 72 73 75 75 75 75 76 77 78 78 78 78 78 78 77 73 70 66 64 62 59 59 61 61 63 65 65 64 63 65 67 71 76 79 81 83 86 89 93 97 100 102 103 103 102 101 97 91 83 75 68 62 60 59 56 50 43 39 37 38 41 45 51 57 57 57 60 64 70 79 86 93 97 97 96 95 94
66 67 67 67 68 68 69 70 71 72 73 73 73 73 74 75 77 78 79 80 80 79 78 75 72 70 67 66 64 64 64 65 66 67 67 67 68 70 72 76 79 82 84 87 90 94 97 101 102 101 101 101 99 94 89 83 76 69 62 58 57 56 54 50 43 37 35 38 41 42 48 55 57 57 60 61 64 73 83 90 95 97 96 95 94
68 68 68 68 68 68 69 70 70 70 71 71 71 71 72 74 75 76 78 78 78 77 75 74 73 71 69 69 70 70 71 72 73 73 73 73 74 76 79 81 84 87 89 91 92 96 98 100 100 99 99 97 92 85 81 77 70 63 57 56 55 53 51 49 43 36 34 36 39 40 44 54 58 57 59 61 61 68 79 86 91 95 97 96 94
70 68 68 67 67 67 68 68 69 69 69 70 70 70 72 74 75 76 77 77 78 77 73 70 71 71 71 72 74 74 74 75 76 76 76 76 77 78 80 82 84 87 89 91 92 94 96 98 98 97 94 88 82 78 75 72 65 58 54 54 54 52 49 46 42 37 33 34 37 38 43 53 58 57 59 61 60 65 75 83 88 93 96 96 94
68 66 66 66 66 67 68 68 67 67 67 67 67 69 72 74 75 76 77 77 77 77 74 72 74 75 74 74 75 75 74 74 75 76 76 77 77 78 80 82 84 87 89 92 93 93 94 95 94 90 85 81 77 74 70 66 60 55 52 52 52 49 47 44 39 35 33 33 34 37 43 52 58 58 60 62 62 64 70 79 85 91 94 95 94
67 66 66 66 67 68 69 68 68 67 65 64 65 67 69 71 73 74 75 76 77 78 77 76 76 76 76 76 77 77 76 76 76 76 77 78 79 80 82 84 86 88 91 93 94 94 92 89 85 81 78 76 74 71 66 62 58 54 51 50 48 46 46 44 37 33 32 32 33 36 43 52 57 58 60 63 64 63 67 75 83 88 91 93 93
Wind_Direction
58 56 55 56 56 53 51 49 46 44 42 40 37 36 36 36 36 36 37 39 42 45 47 48 48 47 43 37 22 339 279 260 256 258 256 253 256 256 250 243 241 245 248 253 257 252 245 244 245 241 237 241 247 251 251 256 273 278 270 265 267 261 254 247 240 232 230 229 223 216 213 206 198 191 188 183 176 171 165 149 127 112 105 105 107
56 50 47 48 49 47 46 44 43 42 42 40 35 32 33 34 34 34 34 37 40 42 41 41 41 42 41 40 37 31 11 301 262 253 247 241 241 247 249 246 243 242 244 248 254 255 250 242 241 239 228 230 237 241 252 266 276 278 269 264 260 258 255 249 245 240 236 235 234 228 222 217 210 203 197 194 189 185 181 167 146 124 118 119 120
53 48 45 44 45 45 43 40 38 38 39 39 37 34 33 32 30 28 29 31 35 38 37 34 32 31 31 32 32 32 30 21 335 267 250 241 235 236 239 243 246 246 247 247 249 253 253 245 238 233 226 228 232 236 246 261 274 278 272 268 263 257 255 250 245 242 239 238 239 237 230 224 218 213 208 203 199 195 191 183 173 146 128 127 134
51 46 42 40 41 40 38 36 33 32 32 34 34 33 32 30 26 22 20 19 21 25 27 26 24 21 20 21 23 26 27 27 22 358 276 249 241 237 234 234 238 242 247 248 248 246 247 244 236 230 227 222 220 224 225 231 244 257 266 270 270 269 269 262 249 241 239 237 238 240 237 230 221 217 215 211 208 204 200 195 192 179 148 126 122
44 39 35 35 37 35 31 30 28 28 28 29 28 27 27 26 24 20 16 13 11 11 13 16 17 15 12 12 13 16 21 24 24 20 5 292 252 245 241 237 233 234 240 245 246 238 236 240 237 233 231 220 214 217 220 227 233 235 248 261 265 264 266 267 261 247 239 237 237 238 239 236 227 218 214 215 213 210 208 202 200 196 172 140 116
29 28 26 26 30 28 25 25 25 26 28 27 24 22 22 21 20 18 15 12 9 7 7 9 11 11 8 6 6 8 13 19 22 22 19 8 313 258 248 245 241 237 236 240 244 237 232 237 239 233 225 218 218 219 220 226 231 229 236 249 252 252 258 266 268 256 242 237 235 235 238 239 236 225 214 212 213 213 213 209 206 201 186 161 133
16 17 14 13 16 16 15 18 19 23 27 26 22 20 18 17 15 13 11 9 7 5 5 5 5 5 4 1 1 4 7 11 17 22 22 19 10 333 268 251 247 246 243 241 243 241 234 234 238 235 226 223 224 223 219 219 226 228 231 240 243 244 253 261 262 257 246 238 234 234 235 238 240 237 224 214 211 212 214 213 211 206 195 178 158
357 3 3 360 360 2 6 6 6 13 19 21 19 16 15 13 11 8 7 5 4 3 3 2 1 0 359 358 357 359 3 6 10 16 20 22 20 13 347 283 255 249 248 246 244 242 237 234 235 235 234 234 229 223 218 218 225 229 228 232 235 235 240 248 253 255 250 240 234 231 232 235 238 241 237 225 214 211 213 214 213 211 203 193 181
345 350 350 347 346 350 355 351 353 3 7 10 12 11 11 10 7 5 4 2 1 360 0 0 360 358 355 354 354 355 358 2 6 9 13 17 20 21 17 357 299 261 251 248 246 244 240 235 234 234 235 236 233 226 218 216 221 227 227 227 230 232 235 242 250 255 252 242 234 229 229 231 234 238 241 236 224 214 212 213 212 214 212 204 197
342 341 340 339 338 340 342 339 343 351 352 357 3 5 8 10 8 5 3 1 359 357 356 357 358 356 354 351 350 351 354 358 2 4 6 10 15 19 21 19 4 314 267 253 248 247 244 238 234 235 235 235 234 229 223 218 219 223 227 226 229 232 234 238 245 251 250 242 234 228 225 226 229 233 237 238 234 222 214 213 212 213 215 211 207
341 336 333 334 336 337 336 333 335 338 339 345 353 356 0 4 5 3 1 359 357 354 352 353 355 355 352 350 348 348 351 355 359 1 2 4 8 12 16 19 19 9 326 273 255 249 246 243 237 234 235 235 234 231 228 223 218 221 226 229 230 232 234 235 240 248 247 241 237 231 224 223 226 228 231 234 236 231 221 216 214 214 215 215 213
341 334 329 331 334 335 332 329 328 328 330 335 342 345 349 353 355 356 356 354 353 351 350 349 351 354 352 348 347 346 348 353 357 359 359 360 1 5 9 12 16 18 12 337 278 257 249 245 241 236 234 234 234 233 231 226 220 219 224 230 233 232 232 232 234 240 244 241 237 232 226 223 225 225 226 229 232 233 228 222 218 216 217 217 216
340 332 330 333 334 331 328 324 320 319 322 327 332 335 341 346 349 350 350 349 348 348 348 346 347 350 351 348 345 345 348 352 355 356 358 359 358 359 3 7 10 14 16 13 347 283 258 249 244 239 235 234 234 234 232 228 223 219 221 228 233 232 231 231 230 231 237 240 235 230 227 224 225 223 223 225 228 231 232 227 223 219 219 220 220
338 332 332 334 333 330 326 321 314 312 315 320 323 329 336 342 346 348 347 347 347 346 346 346 345 347 349 347 344 345 348 351 355 358 359 358 357 357 359 2 5 9 13 15 12 354 290 259 249 243 238 235 234 234 232 229 224 220 221 226 229 230 230 230 229 227 230 236 235 234 232 228 227 225 223 225 227 229 232 231 228 223 221 222 223
338 335 334 333 331 329 326 321 314 307 307 311 316 324 333 339 343 345 346 346 345 345 345 345 344 344 346 346 345 347 351 354 358 1 1 358 355 353 354 356 359 3 7 11 11 10 357 298 261 249 242 238 235 234 233 230 226 221 220 224 226 227 228 229 229 227 226 230 232 236 238 234 232 231 229 229 229 229 231 232 231 228 224 223 224
340 337 335 333 330 328 326 323 316 304 298 302 310 320 328 335 339 342 343 344 343 342 344 345 344 343 344 343 344 348 353 356 357 356 355 354 353 350 349 352 354 356 360 5 8 8 8 357 305 263 249 241 237 236 234 233 230 225 220 221 223 225 228 229 228 226 225 227 227 230 235 236 235 236 233 231 230 229 231 232 231 230 227 224 224
339 338 335 333 330 328 326 324 318 305 293 297 306 316 323 330 335 338 340 339 339 340 342 344 343 342 343 342 340 343 348 351 351 349 347 349 350 350 349 349 351 352 354 358 5 7 7 7 356 310 265 249 241 237 236 235 234 230 224 220 221 224 226 228 228 226 226 228 226 225 229 233 236 238 236 233 232 231 231 232 232 231 229 226 224
337 337 336 334 331 330 329 328 324 311 295 298 306 312 318 324 329 333 335 335 335 336 339 342 342 341 342 342 339 340 343 345 344 343 343 345 347 347 347 348 349 351 352 353 360 6 8 7 5 354 313 269 250 241 238 237 236 234 230 224 222 222 225 226 227 226 227 228 226 224 225 229 235 239 239 235 233 233 232 232 233 232 230 228 225
335 336 337 336 335 335 335 335 332 320 306 305 309 311 315 320 325 330 332 332 332 333 336 339 340 339 340 341 339 338 338 339 339 339 339 341 343 344 345 346 346 349 351 352 355 1 6 8 8 4 352 316 272 251 242 238 237 236 235 231 227 225 224 224 224 225 227 228 227 224 223 225 230 235 238 237 234 233 233 232 233 232 230 229 227
334 336 338 339 338 338 338 337 335 328 318 314 313 315 317 319 324 329 330 330 329 330 331 334 336 335 337 338 336 335 334 333 334 334 335 336 338 340 343 344 344 346 349 350 351 354 359 2 6 6 2 350 317 275 252 242 238 236 236 235 233 230 228 225 224 223 225 227 227 225 223 224 226 230 234 236 236 234 233 232 232 231 230 228 228
333 334 336 338 339 339 339 337 335 332 326 321 319 319 320 321 324 326 328 328 327 325 326 327 330 331 332 333 332 330 330 329 329 329 330 331 333 336 339 341 342 344 346 347 347 348 351 353 357 2 3 359 347 317 277 254 243 238 236 235 235 234 233 230 226 224 224 226 227 227 225 224 225 227 230 234 236 236 234 232 232 231 229 228 228
333 332 332 333 335 337 338 337 333 331 328 326 324 322 321 320 320 320 324 327 324 321 321 321 323 325 325 327 327 326 326 325 325 325 326 327 329 332 335 338 340 341 343 343 343 344 345 347 349 353 358 1 358 345 318 281 256 245 240 236 235 235 234 233 231 228 226 226 226 227 227 226 225 226 227 229 233 235 234 233 232 231 228 227 227
332 331 330 329 329 330 333 334 331 329 331 332 331 328 324 321 318 316 319 324 322 317 315 316 318 319 319 321 322 322 322 323 323 324 324 324 325 327 331 334 337 339 340 340 340 341 341 342 344 347 350 356 1 358 343 318 285 259 247 241 237 235 234 233 232 231 230 228 227 227 228 228 226 226 226 226 229 232 233 233 233 231 227 225 226
332 331 329 327 325 324 325 330 332 332 332 333 333 331 328 324 321 318 319 322 321 315 310 311 313 314 315 316 318 319 320 322 324 325 325 323 323 324 327 331 334 336 336 336 337 337 338 338 339 342 344 347 353 358 354 336 313 288 262 249 242 238 236 234 232 232 231 231 229 229 229 230 229 228 226 224 226 229 231 231 232 231 228 225 224
330 330 329 327 325 322 321 324 327 327 326 327 329 330 330 328 326 323 322 322 320 314 307 306 309 311 311 312 315 316 318 321 324 325 325 323 322 323 325 328 332 333 333 333 333 334 335 335 336 337 339 341 343 350 355 347 324 305 287 263 250 243 239 236 234 232 231 231 230 230 230 230 230 229 227 224 224 227 229 230 231 232 229 226 223
328 328 328 327 326 323 321 320 319 319 319 321 324 327 329 330 328 326 324 322 319 312 305 305 308 308 308 310 312 314 316 320 323 324 324 323 322 322 324 326 329 331 330 329 330 332 332 332 333 334 335 336 338 341 349 352 336 309 297 283 263 251 244 240 237 234 232 231 230 230 229 229 229 229 227 225 223 225 227 229 230 231 230 226 223
324 324 324 324 324 323 321 320 319 316 314 316 321 323 325 328 327 324 323 323 319 311 306 306 308 308 306 307 308 311 315 320 322 323 323 322 322 323 324 324 326 328 327 327 328 329 330 330 330 331 332 333 335 336 341 350 344 317 298 291 277 263 252 244 240 237 233 231 230 230 229 227 227 227 226 225 223 224 225 226 227 228 229 227 224
322 322 322 323 324 323 321 320 317 313 310 313 317 319 321 324 324 322 321 321 319 313 309 308 308 307 306 305 305 309 315 319 321 322 321 320 321 323 324 323 324 325 324 325 327 328 328 328 328 328 330 331 332 333 337 345 345 327 300 294 284 273 263 251 244 240 236 233 230 229 228 226 226 226 225 224 223 222 223 224 224 225 226 227 225
322 323 323 324 325 324 321 318 313 310 310 313 315 315 317 320 322 322 320 319 316 314 312 310 308 307 305 303 304 309 314 316 318 320 319 318 320 323 323 321 322 323 322 322 325 326 325 325 326 326 328 329 330 332 334 339 343 333 306 296 289 278 271 261 251 244 239 235 232 229 228 226 225 225 224 223 222 221 221 223 223 223 224 226 226
320 320 318 320 322 322 318 315 312 311 313 314 314 313 314 317 319 319 319 317 314 314 315 312 309 307 305 304 304 308 311 312 316 317 315 316 319 322 321 320 321 321 320 320 321 323 323 323 324 324 325 326 327 330 332 333 338 337 317 300 293 282 275 268 259 250 242 238 234 230 228 226 225 224 223 222 221 221 221 221 222 222 223 224 224
316 314 314 315 317 317 315 314 314 316 317 315 313 312 313 315 317 316 316 316 314 314 316 314 310 307 305 304 304 306 308 309 312 314 313 314 318 320 320 319 320 320 319 318 318 319 321 321 322 322 323 324 325 327 329 328 333 337 329 312 298 286 279 272 265 256 247 240 236 232 228 226 225 224 223 222 221 221 221 221 222 222 222 223 222
315 312 314 315 316 316 315 313 313 316 317 314 312 312 313 314 315 314 313 314 314 314 315 314 310 307 305 304 304 305 306 307 310 311 310 313 317 318 318 318 319 318 316 316 316 317 318 319 319 320 320 322 323 325 325 325 329 335 334 325 309 292 282 275 268 261 253 244 238 235 230 227 225 224 223 222 221 221 221 221 221 222 221 221 221
315 314 314 315 315 314 313 310 310 312 314 313 312 314 314 314 314 314 313 313 313 314 315 314 311 309 306 305 305 304 303 305 308 307 308 312 315 316 317 318 318 316 314 314 314 315 317 317 318 319 319 320 322 322 322 323 327 331 333 330 320 303 287 278 270 264 257 249 240 236 233 228 225 224 223 223 222 221 221 221 220 221 220 220 220
313 314 313 310 309 308 306 305 307 309 309 310 312 314 314 314 314 314 313 312 311 311 313 314 313 311 309 306 305 304 302 304 305 304 306 311 314 314 316 316 315 314 312 312 312 313 315 316 317 318 318 319 320 320 321 323 325 327 329 330 325 312 296 283 273 266 260 254 244 238 234 230 226 224 223 223 222 221 221 221 220 220 220 220 220
307 310 310 307 305 304 302 304 308 307 304 306 310 311 312 312 313 314 312 310 308 307 310 314 314 312 309 306 305 303 301 301 302 303 306 309 312 313 314 313 312 311 310 310 310 311 313 315 317 317 317 318 318 319 320 321 322 324 325 327 325 317 303 289 277 268 262 257 248 239 235 231 227 225 223 223 222 221 220 220 221 220 220 220 220
307 309 310 306 304 305 306 308 309 304 299 304 308 308 309 311 311 310 307 305 305 307 313 317 316 311 307 304 304 303 300 300 301 303 305 308 311 312 312 311 311 309 308 308 308 309 311 313 315 315 315 316 317 317 318 319 320 321 323 324 324 318 306 293 282 270 262 258 251 241 235 232 228 225 223 223 223 221 220 220 221 221 221 220 220
309 311 310 307 305 307 309 309 305 298 296 301 303 303 304 306 305 304 303 303 307 311 316 317 314 309 305 304 303 303 301 301 303 304 306 308 311 311 311 310 309 307 306 306 306 308 310 311 313 313 313 313 314 315 316 317 318 319 321 322 322 317 306 295 285 272 262 257 252 243 236 232 229 225 223 222 222 222 221 220 221 221 221 220 220
306 307 308 308 305 305 305 303 297 292 292 295 296 296 297 299 300 300 300 303 307 311 312 312 311 308 306 305 306 305 305 305 306 307 307 308 310 310 309 309 308 306 304 305 306 307 308 310 311 311 310 311 313 314 314 315 316 318 319 321 321 315 306 297 288 275 262 256 252 244 236 232 228 226 223 222 222 222 221 220 220 220 220 219 219
302 303 305 307 303 300 299 296 291 289 290 292 293 294 296 297 298 299 300 302 305 306 307 308 308 307 306 307 308 307 307 307 308 308 306 307 309 309 308 308 307 305 303 304 305 306 307 309 309 310 310 311 312 313 313 314 315 317 318 320 319 313 305 298 290 279 264 255 252 246 237 232 229 226 223 221 221 221 221 220 219 220 219 218 218
299 301 302 303 301 298 296 294 291 291 293 294 295 295 297 298 299 299 300 301 301 302 303 304 305 305 306 308 308 308 308 308 308 307 306 306 309 309 308 308 307 304 302 302 303 305 306 307 309 310 311 311 311 311 312 313 314 316 318 318 317 311 304 298 291 280 266 255 251 246 237 232 229 226 223 221 220 220 220 219 218 219 219 218 217
297 297 296 297 298 296 295 293 292 294 296 297 297 297 298 298 298 298 298 298 298 299 300 301 303 305 307 308 309 308 307 306 307 307 306 306 308 309 309 307 304 301 300 301 302 304 306 308 310 311 310 309 309 309 311 312 314 316 317 317 314 308 302 298 290 279 267 256 251 244 236 231 229 225 223 221 220 219 219 219 218 218 218 217 217
296 294 292 294 295 295 294 293 294 296 297 297 297 297 297 297 297 297 297 297 297 299 301 303 305 306 308 308 308 306 305 304 305 306 305 305 307 308 307 304 301 300 300 301 302 304 307 309 308 307 306 306 307 308 310 312 314 316 317 316 312 305 300 297 290 277 266 256 248 243 236 230 228 226 222 221 219 218 218 218 217 217 218 217 216
295 294 293 293 294 295 295 295 295 296 297 297 297 297 296 296 295 295 295 296 298 300 302 304 306 307 307 306 305 304 303 303 304 304 304 304 306 306 303 300 298 299 300 300 302 304 306 305 303 303 303 304 306 308 310 313 314 315 315 314 309 303 299 297 289 276 264 254 247 241 236 230 227 226 223 220 219 218 217 217 217 216 217 217 216
295 295 295 295 296 296 297 296 297 297 297 297 297 296 295 294 294 293 293 294 296 298 300 302 303 304 304 303 303 302 301 301 302 302 303 304 304 303 301 298 296 296 298 298 300 301 301 300 300 300 302 304 306 309 311 313 314 314 314 311 306 301 298 296 289 276 263 253 245 240 236 232 228 226 224 220 218 217 216 216 216 216 216 216 216
297 298 298 298 298 298 297 296 295 295 295 295 294 294 293 293 293 292 292 292 292 294 296 299 300 301 300 300 300 299 299 299 299 300 301 301 301 300 299 296 294 294 295 296 297 297 296 297 298 300 303 305 307 309 311 312 313 313 312 309 304 299 297 294 287 276 263 250 242 238 236 234 229 226 224 221 218 217 215 215 216 215 215 215 216
300 300 300 300 299 298 296 295 294 294 294 293 293 292 292 292 291 292 291 291 291 292 293 295 297 297 296 296 296 296 296 296 296 297 298 296 295 295 293 291 290 291 292 293 293 294 295 296 299 301 304 306 308 310 311 311 312 311 309 306 302 298 296 292 284 275 262 248 239 235 234 234 229 225 225 223 219 216 215 214 215 215 215 215 215
300 300 300 299 297 296 294 293 293 293 292 292 292 292 292 292 292 292 292 292 292 292 293 294 294 294 294 294 295 295 295 294 294 294 293 292 290 289 288 288 288 289 290 291 292 294 295 298 300 302 305 306 308 309 309 309 310 309 307 304 300 296 294 291 283 272 259 246 237 232 231 232 229 225 226 225 219 216 215 214 214 214 214 214 214
300 299 298 297 295 293 292 292 291 291 290 290 291 292 292 292 292 292 292 293 293 294 295 295 294 293 294 295 295 295 295 295 294 294 292 291 289 288 288 288 288 289 290 292 293 295 297 299 301 304 305 306 307 308 308 308 308 307 305 301 297 294 292 288 281 270 257 244 235 229 227 230 229 225 224 225 220 215 215 214 214 214 214 214 213
299 298 297 295 293 292 292 291 290 290 289 289 290 291 291 292 291 291 292 293 293 294 294 292 291 291 293 295 296 296 297 297 296 295 294 293 291 290 290 290 291 292 293 294 295 297 299 301 303 304 305 305 306 307 307 307 307 305 303 300 295 292 289 285 279 270 257 242 233 225 223 227 228 224 222 224 221 216 214 214 213 213 214 214 213
297 296 295 293 292 291 291 290 290 290 291 292 292 292 291 291 291 291 292 292 292 292 291 290 290 291 293 294 294 295 296 296 296 295 294 294 293 292 292 293 293 294 295 296 297 299 300 302 303 304 304 305 305 307 307 306 306 304 302 298 293 289 285 281 275 269 258 241 229 222 221 224 225 223 221 222 221 217 214 213 213 213 213 213 213
296 294 293 292 291 291 291 291 292 293 294 296 296 296 295 294 293 293 292 292 291 290 289 289 290 292 293 293 293 293 293 293 294 294 294 294 294 294 294 294 295 295 296 297 299 300 301 302 302 303 303 304 305 307 307 306 305 303 300 295 290 285 282 277 271 265 258 243 226 220 220 221 222 220 218 220 221 218 214 212 213 213 213 213 213
Height
10979 10978 10976 10974 10973 10973 10973 10972 10971 10969 10967 10966 10964 10963 10961 10960 10958 10957 10956 10954 10952 10949 10947 10944 10942 10941 10939 10938 10936 10934 10932 10931 10930 10928 10928 10927 10927 10927 10927 10928 10928 10929 10929 10929 10929 10929 10930 10931 10932 10933 10931 10930 10930 10930 10931 10931 10930 10930 10930 10930 10930 10930 10931 10931 10932 10932 10932 10933 10933 10934 10934 10934 10935 10935 10936 10936 10936 10936 10936 10936 10935 10935 10934 10934 10934
10981 10980 10978 10976 10974 10973 10973 10973 10972 10970 10968 10966 10965 10963 10962 10960 10959 10958 10957 10955 10953 10950 10947 10945 10942 10940 10938 10937 10935 10933 10931 10929 10927 10927 10926 10925 10924 10924 10924 10925 10925 10926 10927 10928 10928 10927 10928 10929 10929 10930 10929 10927 10927 10928 10928 10928 10928 10928 10928 10928 10929 10929 10930 10931 10931 10932 10932 10933 10933 10933 10934 10934 10934 10935 10935 10936 10936 10936 10936 10936 10936 10935 10935 10934 10934
10982 10981 10980 10977 10975 10974 10974 10973 10972 10971 10969 10966 10965 10963 10962 10961 10960 10958 10957 10955 10953 10950 10947 10944 10941 10939 10936 10935 10933 10931 10929 10927 10925 10923 10923 10922 10921 10921 10921 10921 10922 10923 10923 10925 10925 10925 10925 10925 10925 10925 10926 10925 10925 10926 10926 10925 10925 10925 10926 10927 10928 10928 10929 10930 10930 10931 10932 10932 10933 10933 10933 10933 10934 10934 10935 10935 10936 10936 10936 10936 10936 10935 10935 10934 10934
10981 10981 10979 10978 10976 10974 10974 10974 10972 10971 10969 10967 10965 10964 10962 10961 10959 10958 10956 10954 10952 10950 10947 10944 10941 10938 10935 10933 10931 10930 10928 10925 10923 10921 10919 10919 10919 10918 10918 10918 10919 10919 10920 10921 10922 10923 10921 10918 10919 10920 10921 10922 10922 10922 10921 10921 10921 10922 10925 10927 10927 10928 10928 10929 10929 10930 10930 10931 10932 10932 10932 10932 10933 10933 10934 10934 10935 10935 10936 10936 10936 10935 10935 10934 10934
10980 10979 10979 10978 10976 10975 10974 10973 10972 10971 10969 10966 10965 10964 10962 10960 10958 10957 10955 10953 10951 10949 10947 10944 10940 10937 10934 10932 10930 10929 10927 10925 10922 10920 10917 10916 10915 10915 10915 10915 10915 10916 10916 10917 10918 10920 10916 10910 10912 10915 10916 10917 10918 10918 10918 10917 10919 10921 10924 10926 10927 10927 10928 10928 10928 10929 10929 10929 10930 10930 10931 10931 10931 10931 10932 10933 10934 10934 10935 10935 10935 10935 10935 10934 10934
10978 10978 10978 10977 10975 10974 10974 10973 10972 10970 10968 10966 10964 10963 10961 10959 10957 10955 10953 10952 10950 10947 10945 10942 10939 10937 10934 10931 10929 10928 10927 10925 10922 10920 10917 10914 10912 10911 10911 10912 10912 10913 10913 10913 10913 10914 10912 10906 10906 10910 10912 10913 10914 10914 10915 10916 10918 10919 10922 10924 10925 10927 10927 10927 10927 10927 10927 10927 10928 10928 10929 10930 10930 10930 10930 10930 10931 10933 10934 10934 10935 10935 10934 10934 10933
10978 10977 10976 10975 10974 10974 10973 10972 10971 10969 10967 10965 10964 10962 10960 10958 10956 10954 10952 10950 10948 10946 10943 10941 10938 10936 10933 10931 10929 10927 10925 10924 10922 10920 10917 10914 10911 10909 10908 10908 10909 10909 10909 10910 10909 10909 10909 10905 10903 10904 10906 10908 10910 10911 10912 10914 10915 10917 10919 10921 10923 10925 10925 10924 10924 10924 10925 10925 10926 10926 10927 10928 10929 10929 10929 10929 10929 10930 10932 10933 10934 10934 10934 10934 10933
10977 10976 10975 10974 10973 10972 10972 10972 10970 10968 10966 10965 10963 10961 10959 10956 10955 10953 10951 10949 10947 10944 10942 10939 10937 10934 10932 10930 10928 10926 10924 10923 10921 10920 10917 10914 10911 10908 10906 10904 10904 10905 10905 10906 10906 10905 10906 10904 10903 10901 10901 10902 10904 10906 10908 10910 10911 10913 10916 10919 10920 10922 10923 10921 10921 10922 10923 10923 10923 10924 10925 10926 10928 10929 10929 10929 10928 10928 10930 10931 10932 10933 10933 10933 10933
10976 10975 10975 10974 10973 10972 10971 10971 10968 10966 10964 10963 10961 10960 10958 10956 10953 10952 10950 10948 10945 10943 10940 10938 10936 10933 10931 10928 10926 10924 10923 10921 10920 10919 10917 10914 10911 10908 10905 10903 10901 10901 10901 10901 10901 10901 10902 10902 10901 10900 10899 10898 10899 10901 10904 10906 10907 10909 10912 10915 10917 10918 10919 10920 10920 10921 10921 10921 10921 10922 10923 10924 10926 10927 10928 10929 10928 10928 10928 10929 10930 10932 10933 10933 10932
10975 10975 10975 10974 10973 10971 10970 10969 10967 10964 10963 10962 10960 10959 10957 10955 10953 10950 10948 10946 10943 10941 10939 10937 10935 10932 10930 10928 10925 10923 10921 10920 10919 10918 10916 10914 10911 10908 10905 10902 10900 10898 10897 10897 10897 10897 10897 10898 10898 10897 10897 10896 10896 10897 10900 10902 10904 10905 10908 10911 10913 10914 10916 10918 10918 10919 10919 10919 10919 10920 10921 10922 10923 10924 10926 10927 10928 10928 10927 10927 10928 10930 10931 10932 10932
10974 10974 10974 10973 10971 10969 10968 10967 10964 10963 10962 10960 10958 10957 10956 10955 10953 10950 10947 10945 10942 10939 10937 10935 10933 10931 10929 10927 10924 10922 10920 10919 10918 10916 10914 10912 10910 10907 10904 10901 10899 10897 10894 10893 10893 10892 10893 10894 10894 10894 10894 10894 10894 10895 10897 10899 10900 10902 10904 10907 10909 10911 10913 10914 10915 10916 10917 10917 10917 10918 10918 10919 10920 10921 10923 10924 10926 10927 10927 10926 10927 10928 10929 10930 10931
10972 10973 10972 10971 10969 10967 10966 10964 10962 10961 10959 10958 10957 10956 10955 10953 10952 10950 10947 10944 10941 10938 10935 10933 10932 10930 10927 10925 10923 10921 10919 10918 10917 10915 10913 10911 10908 10906 10903 10901 10898 10895 10893 10891 10890 10889 10889 10889 10890 10891 10891 10891 10892 10893 10894 10895 10897 10899 10901 10903 10905 10907 10909 10911 10912 10913 10915 10915 10915 10914 10915 10916 10917 10918 10920 10921 10923 10924 10925 10925 10925 10926 10927 10928 10929
10972 10973 10971 10968 10967 10965 10964 10963 10961 10959 10957 10956 10955 10954 10953 10952 10950 10948 10946 10943 10940 10937 10934 10932 10930 10928 10926 10924 10921 10919 10918 10916 10915 10913 10911 10909 10907 10904 10902 10900 10897 10895 10892 10889 10887 10886 10886 10885 10886 10886 10887 10888 10888 10889 10891 10892 10893 10895 10897 10899 10901 10903 10905 10907 10909 10910 10912 10912 10910 10910 10911 10913 10914 10915 10916 10918 10919 10921 10923 10924 10924 10924 10925 10926 10928
10972 10971 10969 10966 10964 10963 10962 10961 10959 10957 10955 10954 10953 10952 10951 10949 10947 10945 10943 10941 10938 10935 10933 10930 10928 10926 10924 10922 10920 10918 10916 10915 10913 10911 10910 10908 10905 10903 10900 10898 10895 10894 10891 10888 10885 10883 10883 10882 10882 10883 10883 10885 10885 10886 10887 10888 10889 10891 10893 10895 10897 10899 10901 10903 10905 10907 10907 10907 10907 10909 10910 10910 10911 10912 10913 10915 10916 10918 10920 10921 10922 10922 10923 10924 10926
10970 10968 10966 10963 10962 10961 10959 10957 10956 10955 10953 10952 10951 10950 10949 10947 10945 10943 10941 10938 10936 10934 10931 10928 10926 10923 10921 10919 10917 10916 10915 10914 10912 10910 10908 10906 10903 10901 10899 10896 10893 10891 10889 10887 10883 10881 10879 10878 10879 10879 10880 10881 10882 10883 10884 10884 10886 10888 10889 10891 10893 10895 10896 10899 10901 10902 10902 10903 10905 10907 10908 10908 10908 10910 10911 10912 10914 10915 10917 10918 10920 10920 10921 10922 10924
10967 10965 10962 10960 10958 10957 10956 10954 10953 10953 10952 10950 10949 10948 10946 10944 10942 10940 10938 10936 10934 10931 10929 10926 10923 10921 10919 10916 10914 10913 10912 10911 10910 10908 10906 10903 10900 10898 10896 10894 10892 10889 10887 10885 10882 10879 10876 10874 10874 10874 10876 10877 10879 10880 10881 10882 10883 10884 10885 10887 10889 10891 10892 10894 10896 10897 10898 10899 10901 10904 10905 10906 10906 10907 10908 10909 10910 10912 10913 10915 10916 10917 10918 10919 10921
10965 10963 10961 10959 10957 10955 10953 10951 10950 10950 10950 10947 10946 10945 10943 10941 10940 10938 10935 10933 10931 10929 10926 10923 10921 10918 10916 10914 10912 10910 10909 10908 10906 10904 10902 10900 10898 10895 10893 10891 10890 10888 10885 10883 10882 10878 10874 10871 10870 10869 10870 10872 10874 10876 10877 10879 10880 10881 10882 10883 10885 10886 10888 10890 10892 10893 10893 10894 10897 10899 10901 10902 10903 10904 10905 10906 10907 10908 10910 10912 10913 10914 10915 10916 10918
10964 10962 10960 10958 10955 10953 10951 10949 10947 10947 10946 10944 10943 10942 10941 10939 10937 10936 10933 10931 10928 10926 10923 10921 10918 10916 10913 10911 10909 10908 10906 10904 10902 10900 10898 10897 10895 10893 10890 10888 10886 10885 10883 10881 10879 10877 10873 10870 10867 10866 10866 10866 10868 10871 10873 10875 10876 10877 10878 10880 10881 10882 10884 10886 10888 10889 10889 10890 10892 10894 10896 10898 10899 10900 10901 10902 10903 10905 10906 10908 10909 10911 10912 10913 10914
10963 10961 10959 10957 10954 10952 10949 10947 10945 10943 10942 10941 10940 10940 10939 10938 10936 10933 10931 10928 10925 10922 10920 10918 10915 10913 10911 10909 10907 10905 10903 10901 10899 10897 10895 10893 10892 10890 10888 10885 10882 10880 10879 10877 10876 10875 10873 10870 10866 10864 10863 10862 10863 10865 10867 10870 10871 10872 10874 10875 10877 10878 10880 10881 10883 10884 10885 10886 10887 10889 10891 10893 10895 10896 10897 10898 10899 10901 10902 10904 10905 10907 10908 10909 10911
10961 10960 10958 10956 10953 10950 10948 10946 10944 10942 10940 10939 10938 10938 10937 10936 10933 10930 10927 10924 10921 10919 10917 10915 10912 10910 10908 10906 10904 10902 10900 10898 10896 10894 10892 10890 10889 10887 10885 10882 10879 10877 10875 10873 10872 10871 10870 10868 10866 10863 10861 10860 10859 10859 10861 10863 10865 10867 10868 10870 10871 10873 10875 10876 10878 10879 10880 10881 10882 10884 10886 10888 10890 10891 10893 10894 10895 10896 10898 10899 10901 10902 10904 10905 10907
10959 10958 10956 10954 10951 10949 10946 10944 10942 10941 10939 10938 10937 10936 10934 10932 10930 10927 10924 10921 10918 10916 10914 10912 10910 10907 10905 10902 10901 10899 10897 10895 10893 10891 10889 10888 10886 10884 10882 10879 10877 10874 10871 10870 10869 10868 10866 10865 10864 10862 10860 10857 10856 10856 10856 10857 10858 10860 10861 10863 10865 10866 10868 10870 10872 10873 10875 10876 10877 10878 10880 10882 10884 10886 10888 10889 10891 10892 10893 10894 10896 10898 10899 10901 10903
10956 10954 10952 10951 10949 10947 10945 10942 10941 10939 10938 10937 10935 10933 10930 10928 10925 10923 10920 10918 10915 10914 10912 10909 10907 10905 10902 10899 10897 10895 10894 10893 10891 10889 10887 10885 10883 10881 10879 10876 10874 10871 10868 10866 10864 10863 10863 10862 10861 10860 10859 10856 10854 10852 10852 10852 10853 10853 10854 10856 10857 10859 10860 10862 10864 10866 10868 10870 10871 10872 10874 10875 10877 10880 10882 10884 10885 10887 10888 10889 10891 10893 10894 10896 10898
10951 10950 10949 10947 10946 10944 10942 10940 10939 10937 10936 10934 10932 10930 10927 10924 10921 10919 10917 10915 10913 10911 10909 10906 10904 10901 10899 10896 10894 10892 10890 10889 10888 10886 10884 10883 10880 10878 10876 10874 10872 10868 10866 10863 10861 10859 10858 10857 10856 10855 10855 10854 10852 10850 10848 10848 10848 10848 10848 10849 10850 10851 10853 10854 10856 10858 10860 10862 10864 10865 10867 10869 10870 10873 10875 10878 10879 10881 10882 10884 10886 10887 10889 10891 10894
10947 10945 10944 10943 10942 10940 10939 10938 10936 10934 10933 10931 10929 10927 10924 10921 10919 10916 10914 10912 10909 10907 10905 10903 10900 10897 10895 10893 10890 10888 10886 10885 10883 10882 10880 10879 10877 10874 10872 10870 10869 10866 10863 10861 10859 10856 10854 10852 10851 10849 10849 10849 10849 10848 10846 10844 10843 10843 10843 10843 10843 10843 10844 10846 10847 10849 10851 10853 10855 10858 10859 10861 10863 10865 10868 10870 10872 10874 10876 10878 10880 10882 10884 10886 10889
10943 10942 10940 10938 10937 10936 10935 10934 10932 10931 10929 10928 10926 10924 10921 10919 10916 10913 10910 10907 10904 10902 10901 10898 10896 10893 10890 10888 10886 10884 10882 10880 10878 10876 10875 10873 10872 10869 10867 10865 10864 10862 10860 10858 10856 10853 10851 10848 10847 10845 10844 10843 10843 10843 10842 10840 10838 10836 10836 10836 10836 10836 10836 10837 10838 10840 10841 10844 10846 10848 10851 10853 10855 10857 10860 10862 10865 10867 10869 10872 10874 10876 10878 10881 10883
10939 10938 10936 10934 10933 10931 10930 10929 10928 10926 10924 10922 10920 10918 10916 10914 10912 10908 10905 10903 10900 10898 10896 10894 10891 10889 10886 10884 10882 10879 10877 10875 10873 10871 10869 10867 10866 10864 10862 10859 10858 10856 10854 10852 10851 10849 10847 10844 10842 10840 10839 10838 10837 10837 10836 10835 10833 10831 10829 10828 10828 10828 10829 10829 10830 10830 10832 10834 10837 10839 10841 10844 10847 10849 10852 10854 10857 10860 10862 10865 10867 10870 10873 10875 10878
10935 10933 10932 10930 10928 10927 10925 10924 10923 10921 10918 10916 10914 10912 10910 10909 10907 10904 10901 10899 10896 10893 10892 10889 10887 10884 10882 10879 10877 10875 10872 10871 10868 10866 10863 10861 10860 10858 10856 10853 10851 10849 10847 10845 10844 10843 10841 10839 10837 10835 10834 10832 10831 10830 10829 10829 10828 10826 10823 10821 10819 10819 10820 10820 10821 10822 10823 10824 10826 10829 10831 10834 10837 10840 10843 10846 10849 10852 10854 10857 10860 10864 10867 10869 10872
10931 10929 10927 10925 10923 10922 10920 10919 10917 10915 10913 10911 10908 10906 10904 10903 10901 10899 10897 10895 10892 10890 10888 10885 10882 10880 10877 10875 10872 10870 10868 10866 10864 10861 10858 10856 10854 10852 10850 10847 10844 10841 10839 10838 10837 10835 10834 10833 10831 10829 10827 10826 10824 10823 10822 10821 10821 10820 10817 10814 10812 10811 10810 10810 10811 10812 10814 10815 10816 10818 10820 10824 10827 10830 10834 10837 10840 10844 10847 10850 10853 10856 10860 10863 10866
10927 10924 10922 10920 10918 10917 10915 10913 10912 10911 10909 10907 10904 10901 10899 10897 10895 10893 10891 10890 10888 10886 10884 10882 10878 10875 10873 10870 10868 10865 10863 10861 10859 10856 10853 10851 10849 10847 10844 10842 10839 10835 10831 10828 10828 10828 10826 10824 10824 10822 10819 10818 10816 10815 10814 10814 10815 10814 10811 10808 10806 10803 10801 10800 10800 10801 10803 10805 10806 10807 10809 10812 10816 10820 10823 10827 10831 10835 10838 10841 10845 10849 10852 10856 10859
10922 10920 10918 10916 10915 10913 10911 10909 10907 10906 10904 10901 10898 10896 10894 10892 10890 10888 10886 10885 10883 10882 10880 10878 10875 10872 10869 10866 10864 10861 10859 10856 10854 10851 10849 10846 10844 10841 10839 10836 10833 10830 10826 10822 10819 10819 10819 10816 10814 10814 10812 10809 10808 10806 10805 10805 10807 10808 10805 10802 10799 10796 10793 10791 10789 10790 10791 10793 10794 10796 10798 10801 10804 10808 10812 10816 10820 10824 10829 10832 10836 10840 10844 10848 10852
10917 10915 10913 10912 10911 10909 10907 10905 10902 10900 10897 10895 10893 10890 10888 10886 10885 10883 10881 10879 10878 10876 10874 10872 10870 10867 10865 10862 10859 10856 10854 10852 10849 10846 10843 10841 10838 10835 10833 10830 10828 10824 10821 10817 10812 10809 10810 10808 10805 10804 10803 10801 10799 10797 10796 10796 10797 10798 10797 10795 10792 10788 10785 10781 10779 10778 10778 10780 10781 10783 10786 10789 10793 10797 10801 10805 10809 10814 10818 10823 10827 10831 10836 10840 10844
10912 10910 10907 10906 10905 10903 10901 10899 10896 10894 10892 10889 10887 10885 10884 10882 10879 10877 10875 10874 10872 10870 10868 10866 10863 10861 10859 10856 10853 10851 10848 10846 10843 10840 10837 10835 10832 10829 10826 10824 10821 10818 10814 10812 10808 10802 10800 10799 10798 10795 10793 10791 10789 10788 10787 10786 10786 10785 10785 10785 10783 10780 10776 10771 10768 10765 10765 10766 10768 10770 10774 10778 10781 10785 10789 10794 10799 10803 10808 10812 10817 10822 10827 10832 10836
10907 10904 10902 10900 10898 10896 10894 10892 10890 10888 10886 10884 10883 10881 10879 10877 10875 10872 10870 10868 10867 10865 10863 10860 10858 10856 10853 10850 10847 10845 10842 10839 10837 10834 10831 10828 10825 10822 10820 10817 10814 10812 10808 10804 10802 10798 10792 10789 10788 10786 10783 10781 10779 10777 10776 10775 10774 10773 10772 10772 10772 10770 10766 10761 10756 10753 10751 10752 10756 10758 10761 10766 10770 10773 10778 10783 10788 10793 10798 10802 10807 10812 10818 10823 10828
10903 10900 10897 10895 10893 10890 10889 10887 10885 10883 10881 10879 10878 10875 10873 10871 10869 10868 10866 10864 10862 10860 10858 10855 10852 10850 10847 10844 10841 10839 10836 10833 10830 10828 10824 10821 10818 10815 10813 10810 10807 10805 10802 10797 10794 10791 10787 10782 10778 10776 10773 10771 10769 10766 10764 10762 10761 10761 10760 10759 10758 10757 10755 10750 10745 10741 10738 10738 10742 10746 10749 10753 10758 10762 10766 10771 10776 10782 10787 10792 10798 10803 10809 10814 10820
10899 10896 10892 10889 10887 10884 10882 10881 10880 10878 10876 10874 10872 10870 10867 10865 10863 10861 10860 10858 10857 10855 10852 10849 10846 10843 10841 10838 10835 10832 10829 10826 10823 10821 10818 10815 10812 10809 10806 10803 10801 10798 10795 10791 10787 10783 10780 10776 10772 10768 10764 10761 10759 10756 10754 10751 10749 10749 10748 10746 10745 10743 10740 10737 10733 10728 10725 10724 10727 10731 10735 10739 10744 10750 10755 10759 10764 10770 10777 10783 10788 10794 10800 10806 10812
10893 10890 10886 10882 10880 10878 10876 10875 10874 10872 10870 10867 10865 10863 10862 10859 10856 10854 10853 10851 10850 10848 10845 10842 10839 10837 10835 10832 10829 10826 10823 10819 10817 10814 10812 10808 10805 10802 10799 10796 10794 10791 10787 10784 10780 10776 10772 10768 10764 10760 10756 10753 10750 10746 10744 10742 10738 10737 10737 10735 10733 10729 10724 10721 10719 10716 10712 10709 10711 10716 10721 10725 10730 10736 10742 10747 10753 10759 10766 10773 10779 10785 10792 10798 10804
10888 10885 10881 10876 10873 10871 10870 10868 10867 10866 10864 10861 10858 10857 10855 10854 10851 10848 10845 10843 10841 10839 10837 10835 10833 10831 10829 10826 10823 10820 10816 10812 10809 10807 10804 10801 10798 10794 10791 10787 10785 10783 10779 10776 10772 10768 10764 10760 10756 10751 10746 10744 10742 10737 10733 10731 10728 10725 10724 10722 10720 10717 10710 10704 10704 10704 10699 10695 10696 10700 10705 10709 10715 10722 10729 10735 10742 10748 10755 10762 10769 10777 10783 10790 10795
10884 10881 10878 10872 10869 10866 10864 10863 10861 10860 10858 10855 10853 10851 10849 10847 10845 10842 10838 10835 10833 10831 10830 10828 10827 10824 10822 10819 10816 10813 10809 10804 10801 10799 10796 10793 10789 10786 10782 10778 10776 10774 10771 10767 10763 10759 10756 10752 10749 10744 10737 10735 10734 10729 10723 10721 10718 10715 10712 10709 10707 10703 10697 10691 10688 10688 10687 10683 10683 10686 10690 10695 10701 10709 10716 10723 10730 10737 10744 10752 10760 10767 10773 10780 10786
10881 10878 10875 10870 10866 10862 10858 10857 10855 10853 10851 10849 10847 10844 10842 10839 10837 10834 10832 10829 10826 10824 10822 10820 10819 10817 10813 10811 10807 10804 10800 10796 10793 10790 10787 10785 10782 10778 10774 10769 10766 10763 10761 10759 10755 10751 10747 10744 10741 10736 10729 10725 10723 10720 10715 10711 10707 10704 10701 10697 10693 10689 10684 10679 10674 10673 10673 10672 10671 10673 10678 10683 10689 10696 10703 10710 10718 10725 10732 10741 10750 10757 10763 10770 10776
10878 10875 10871 10866 10861 10858 10854 10851 10849 10847 10845 10843 10840 10837 10834 10831 10829 10827 10825 10822 10819 10816 10814 10812 10811 10809 10805 10802 10798 10794 10791 10788 10785 10781 10779 10776 10773 10770 10766 10762 10758 10754 10751 10748 10746 10743 10740 10736 10731 10727 10721 10715 10712 10710 10706 10701 10697 10694 10690 10686 10682 10676 10671 10667 10662 10659 10660 10660 10660 10661 10666 10672 10678 10683 10689 10697 10705 10712 10722 10731 10739 10746 10753 10760 10767
10874 10870 10866 10861 10857 10853 10850 10847 10844 10841 10839 10836 10832 10829 10825 10822 10820 10819 10817 10815 10813 10809 10806 10803 10802 10799 10796 10793 10789 10785 10781 10779 10777 10773 10769 10766 10764 10761 10758 10754 10751 10747 10742 10739 10737 10735 10731 10726 10721 10717 10712 10707 10702 10699 10696 10692 10687 10683 10679 10674 10669 10664 10660 10657 10650 10646 10647 10650 10649 10650 10654 10659 10665 10671 10677 10685 10693 10702 10712 10720 10728 10736 10743 10750 10757
10867 10863 10860 10856 10852 10849 10845 10842 10839 10836 10833 10831 10826 10822 10818 10814 10811 10810 10809 10807 10805 10801 10797 10793 10791 10789 10787 10784 10781 10777 10772 10769 10768 10766 10762 10758 10756 10754 10750 10746 10742 10738 10733 10730 10728 10725 10722 10717 10711 10707 10703 10698 10693 10689 10686 10681 10677 10673 10668 10662 10657 10651 10648 10647 10640 10635 10636 10639 10639 10639 10642 10648 10655 10660 10666 10673 10682 10691 10701 10709 10718 10726 10733 10740 10749
10860 10857 10855 10852 10848 10844 10840 10836 10832 10829 10826 10824 10821 10817 10812 10809 10805 10803 10801 10799 10797 10794 10789 10785 10783 10780 10778 10776 10774 10770 10765 10760 10759 10759 10755 10751 10749 10747 10744 10739 10734 10729 10725 10721 10719 10716 10713 10708 10702 10697 10694 10689 10684 10679 10675 10671 10667 10662 10657 10652 10645 10639 10636 10635 10631 10626 10627 10630 10631 10631 10631 10636 10645 10650 10656 10664 10671 10678 10689 10699 10708 10716 10723 10731 10740
10854 10851 10849 10845 10841 10837 10833 10829 10824 10821 10819 10817 10814 10810 10806 10802 10799 10796 10794 10792 10790 10787 10784 10780 10777 10774 10771 10769 10766 10763 10759 10754 10752 10750 10747 10743 10741 10738 10736 10731 10726 10722 10718 10714 10711 10708 10703 10699 10693 10687 10683 10679 10675 10669 10665 10661 10657 10651 10646 10641 10635 10628 10625 10624 10621 10618 10619 10622 10624 10623 10622 10626 10635 10643 10648 10655 10659 10666 10678 10690 10697 10705 10713 10722 10730
10847 10845 10841 10837 10833 10830 10826 10822 10818 10815 10812 10810 10807 10803 10799 10795 10792 10789 10787 10785 10783 10780 10777 10774 10770 10767 10764 10761 10759 10755 10752 10749 10746 10742 10739 10737 10733 10730 10728 10723 10718 10714 10710 10706 10702 10698 10693 10689 10685 10680 10674 10670 10665 10660 10654 10651 10647 10641 10636 10630 10624 10618 10615 10614 10612 10611 10612 10614 10615 10615 10614 10617 10628 10636 10640 10643 10649 10658 10669 10678 10685 10694 10703 10712 10720
10840 10837 10833 10829 10826 10823 10819 10815 10812 10809 10805 10802 10799 10796 10792 10788 10785 10782 10779 10777 10775 10772 10770 10767 10764 10760 10756 10754 10752 10748 10745 10742 10739 10735 10732 10729 10725 10722 10719 10714 10708 10703 10700 10696 10692 10688 10683 10678 10675 10671 10666 10661 10657 10652 10645 10640 10637 10632 10627 10621 10614 10609 10605 10604 10604 10603 10604 10605 10607 10609 10608 10611 10620 10629 10630 10633 10641 10651 10659 10666 10674 10683 10692 10700 10709
10832 10829 10826 10823 10819 10816 10812 10809 10805 10802 10798 10794 10791 10787 10784 10780 10777 10774 10771 10768 10766 10763 10761 10758 10755 10752 10748 10745 10743 10740 10737 10734 10731 10728 10725 10721 10717 10712 10708 10703 10698 10693 10690 10686 10681 10676 10672 10667 10664 10661 10656 10651 10647 10643 10636 10631 10627 10622 10618 10612 10606 10601 10597 10594 10595 10596 10597 10598 10600 10603 10604 10604 10611 10619 10622 10626 10635 10643 10649 10655 10663 10672 10681 10689 10698
10824 10821 10818 10815 10811 10808 10805 10802 10797 10794 10790 10786 10783 10779 10775 10772 10768 10765 10762 10760 10758 10755 10752 10749 10745 10742 10739 10735 10733 10731 10728 10724 10720 10717 10715 10711 10708 10703 10697 10692 10687 10682 10679 10676 10672 10666 10660 10655 10652 10650 10646 10641 10636 10632 10626 10621 10617 10613 10608 10602 10597 10594 10590 10587 10586 10588 10589 10590 10594 10599 10599 10596 10601 10610 10614 10618 10627 10634 10638 10645 10652 10661 10669 10677 10686
10816 10813 10810 10807 10802 10799 10797 10794 10790 10786 10783 10779 10776 10772 10768 10764 10761 10757 10754 10752 10749 10747 10745 10740 10735 10733 10730 10726 10722 10720 10717 10713 10709 10705 10702 10699 10696 10692 10687 10682 10677 10672 10667 10664 10661 10657 10651 10645 10640 10637 10634 10630 10626 10623 10617 10612 10608 10604 10600 10594 10588 10586 10583 10580 10579 10580 10582 10584 10588 10593 10593 10589 10593 10602 10606 10610 10618 10624 10629 10636 10643 10650 10658 10666 10676
10810 10807 10803 10799 10794 10790 10788 10786 10782 10778 10775 10771 10768 10765 10761 10757 10753 10750 10747 10744 10740 10738 10736 10731 10726 10723 10720 10717 10714 10711 10707 10704 10699 10695 10692 10688 10685 10681 10677 10672 10667 10662 10656 10651 10648 10646 10642 10637 10631 10626 10622 10617 10614 10612 10608 10602 10598 10595 10592 10586 10582 10579 10575 10573 10573 10573 10574 10577 10582 10586 10586 10583 10586 10594 10598 10602 10608 10615 10621 10628 10634 10641 10649 10658 10666
10803 10800 10796 10792 10788 10784 10781 10777 10774 10770 10767 10764 10761 10757 10753 10749 10745 10741 10739 10736 10733 10729 10726 10722 10717 10714 10710 10707 10704 10701 10698 10694 10690 10686 10681 10677 10674 10670 10666 10661 10656 10651 10646 10640 10636 10633 10629 10626 10622 10617 10612 10607 10603 10600 10597 10592 10588 10585 10582 10578 10575 10572 10567 10565 10566 10568 10567 10570 10576 10579 10578 10576 10578 10585 10591 10595 10600 10606 10614 10621 10626 10633 10641 10650 10658